Regional Weather Roundup
Issued by NWS Goodland, KS

Home | Current Version | Previous Version | Text Only | Print | Product List | Glossary Off
Versions: 1 2 3 4 5 6 7 8 9 10 11 12 13 14 15 16 17 18 19 20 21 22 23 24 25 26 27 28 29 30 31 32 33 34 35 36 37 38 39 40 41 42 43 44 45 46 47 48 49 50

000
ASUS43 KGLD 211859
RWRGLD

GOODLAND FORECAST AREA HOURLY WEATHER ROUNDUP
NATIONAL WEATHER SERVICE GOODLAND KS
1200 PM MST TUE FEB 21 2017

...OFFICIAL OBSERVATIONS...

CITY           SKY/WX    TMP DP  RH WIND       PRES   REMARKS
GOODLAND KS    SUNNY     76  22  13 N13G21    29.99F
HILL CITY KS   SUNNY     73  22  14 SW15G23   29.97F
IMPERIAL NEB   SUNNY     73  23  15 W18G26    29.95F
MCCOOK NEB     SUNNY     74  29  19 W10       29.94F
AKRON CO       SUNNY     69  21  16 W26G36    30.01F
BURLINGTON CO  SUNNY     75  21  13 W14G21    30.04F
LIMON CO       SUNNY     71  10   9 NW21G26   30.06F
$$

...UNOFFICIAL OBSERVATIONS...

CITY           SKY/WX    TMP DP  RH WIND       PRES   REMARKS
LENORA KS        N/A     72  32  23 S8          N/A
NORTON KS      SUNNY     75  12   9 W8G17     29.94
SHARON SPRINGS   N/A     72  29  20 CALM        N/A
TRENTON NEB      N/A     74  32  21 CALM        N/A
KIT CARSON CO    N/A     72  26  18 MISG        N/A
YUMA CO        FAIR      70  23  17 W24G30    30.00F
$$



USA.gov is the U.S. government's official web portal to all federal, state and local government web resources and services.